OPS 4682 DEB, 38456

Orbit data source: Space-Track

OPS 4682 DEB, 38456 is space debris in LEO originally from a launch on Sat, 03 Apr 1965 UTC launched from the Air Force Western Test Range (AFWTR). Debris objects in space refer to the collection of defunct objects orbiting the Earth. Examples of debris include non-operational satellites, rocket bodies, and fragments generated from explosions, collisions, or faulty payload assembly.

Loading next visibility...
Identifier
38456, 1965-027FM
Orbit
LEO
Country
Flag of USUS
Related business
Manufacturer
Unknown
Mission
Spacecraft
Bus & Motor
Unknown
Mass
Unknown
Launch date (UTC)
1965-04-03 (61 years ago)
Launch vehicle
Unknown
Launch site
Air Force Western Test Range (AFWTR)
Object type
Payload
Rocket body
Debris
Shape & HBR
Unknown shape, 0.1 m
Radar Cross Section
Small (<0.1 m²)

Expand to show TLE details & history
Last TLE update: 1 week ago

TLE from 1 week ago
0 OPS 4682 DEB
1 38456U 65027FM  26200.89378028  .00000374  00000-0  12651-2 0  9992
2 38456  90.2614   4.6611 0019630 287.5618  72.3358 12.97456781 94173
Epoch: 2026-07-19T21:27Z
TLE epoch observation values (Epoch: 2026-07-19T21:27:02.616Z)
Latitude
-0.00001°
Longitude
105.21456°
Altitude
1,270.416 km
Speed
7.223 km/s
True Right ascension
00h 18m 38s
True Declination
0° 00' 00"
Sunlit
Object was in daylight at epoch
Visualization orbit readout
Latitude
Unknown
Longitude
Unknown
Altitude
Unknown
Speed
Unknown
Apparent Right ascension
Unknown
Apparent Declination
Unknown
Sunlit
N/A
Visualization observer readout
Local Sidereal Time
19:00:48
Azimuth
Unknown
Elevation
Unknown
Doppler factor
Unknown
Orbital elements
Apogee altitude
1,284.21 km
Perigee altitude
1,254.186 km
Semi-major axis
7,647.335 km
Eccentricity
0.00196
Inclination
90.2614°
RAAN
4.6611°
Arg. of periapsis
287.5618°
True anomaly
72.5503°
Mean anomaly
72.3358°
Eccentric anomaly
72.44303°
Mean motion
3.24547 °/min
Orbital period
110.92 mins
BSTAR
0.0012651
Loading maneuver chart data...
Computing Atmospheric mass density...
Loading historical data...
Loading historical data...
Loading historical data...
Loading historical data...
Loading historical data...
Loading historical data...
Loading historical data...

Documentation

Showing up to 5 results
|